Date,TemperatureHighF,TemperatureAvgF,TemperatureLowF,DewpointHighF,DewpointAvgF,DewpointLowF,HumidityHigh,HumidityAvg,HumidityLow,PressureMaxIn,PressureMinIn,WindSpeedMaxMPH,WindSpeedAvgMPH,GustSpeedMaxMPH,PrecipitationSumIn
2013-1-1,51,44,38,51,44,38,99,99,99,30.09,29.94,10,2,11,0.87
2013-1-2,45,38,36,45,37,35,99,97,84,30.16,29.98,9,3,11,0.02
2013-1-3,48,36,27,46,33,26,99,92,50,30.35,30.13,7,2,8,0.00
2013-1-4,50,32,22,42,27,22,99,84,47,30.42,30.32,7,1,10,0.00
2013-1-5,50,35,22,42,33,22,99,92,72,30.40,30.23,8,2,8,0.06
2013-1-6,50,40,35,47,40,34,99,98,86,30.26,30.13,11,4,12,0.04
2013-1-7,55,37,24,46,34,24,99,90,71,30.38,30.25,8,2,10,0.00
2013-1-8,61,40,26,61,40,26,99,99,92,30.39,30.24,7,2,8,0.00
2013-1-9,53,48,42,53,47,42,99,99,99,30.42,30.29,7,2,11,0.01
2013-1-10,71,57,46,71,56,45,99,99,99,30.41,30.10,20,3,25,0.00
2013-1-11,70,65,62,70,64,61,99,99,99,30.09,29.99,18,7,23,0.05
2013-1-12,74,67,64,74,66,58,99,96,74,30.02,29.89,16,5,16,0.05
2013-1-13,69,66,61,65,60,58,99,80,68,29.94,29.84,20,8,20,0.89
2013-1-14,61,43,37,61,43,36,99,99,99,30.20,29.93,11,4,14,1.52
2013-1-15,43,41,38,43,41,37,99,99,99,30.11,29.92,11,2,11,1.37
2013-1-16,49,44,41,49,44,41,99,99,99,30.00,29.85,12,2,14,0.26
2013-1-17,49,38,31,49,37,30,99,99,96,30.29,29.74,25,8,31,0.73
2013-1-18,53,35,25,41,31,25,99,88,42,30.49,30.29,6,1,7,0.05
2013-1-19,55,39,23,43,32,23,99,80,49,30.40,30.17,17,4,21,0.00
2013-1-20,62,45,34,53,41,34,99,87,66,30.19,30.08,10,2,11,0.00
2013-1-21,50,36,20,46,17,-27,99,54,10,30.21,30.08,14,3,14,0.73
2013-1-22,40,29,21,16,7,2,68,40,22,30.36,30.19,9,3,27,0.00
2013-1-23,49,37,27,29,17,5,70,46,31,30.37,30.13,15,3,27,0.00
2013-1-24,44,36,24,35,18,3,81,52,22,30.39,30.16,17,5,17,0.00
2013-1-25,35,31,23,34,26,10,99,83,50,30.36,30.11,16,3,16,0.02
2013-1-26,54,38,32,36,31,25,99,79,35,30.33,30.19,8,2,8,0.00
2013-1-27,50,39,25,49,33,25,99,82,54,30.42,30.29,13,2,13,0.00
2013-1-28,58,51,43,52,45,33,99,80,58,30.34,30.19,14,6,14,0.00
2013-1-29,68,57,43,67,54,43,99,89,70,30.21,29.82,20,4,20,0.00
2013-1-30,69,58,42,69,58,42,99,99,80,29.82,29.45,26,10,33,2.36
2013-1-31,47,39,33,42,30,20,99,74,37,30.04,29.69,22,9,27,0.00
2013-2-1,43,30,21,33,16,9,92,59,34,30.39,30.00,23,5,24,0.00
2013-2-2,38,29,20,37,27,18,99,93,77,30.38,30.09,14,4,17,0.01
2013-2-3,51,38,28,37,31,24,99,76,41,30.16,30.01,16,5,17,0.04
2013-2-4,49,36,23,31,27,23,99,72,49,30.16,29.97,11,3,11,0.00
2013-2-5,62,49,41,45,38,29,96,67,44,30.03,29.93,14,4,16,0.01
2013-2-6,68,48,32,48,35,26,99,69,22,30.18,30.03,8,1,10,0.00
2013-2-7,50,44,38,46,39,33,99,82,57,30.12,29.92,7,1,7,0.04
2013-2-8,56,46,38,51,42,30,99,86,52,30.24,29.88,17,5,17,0.08
2013-2-9,60,42,30,33,29,26,93,64,31,30.32,30.19,12,4,14,0.00
2013-2-10,62,48,36,51,37,25,95,70,26,30.22,29.96,24,8,36,0.25
2013-2-11,58,53,41,56,47,33,99,83,45,30.11,29.95,17,6,21,0.02
2013-2-12,54,45,36,42,35,29,99,72,40,30.15,29.81,13,2,17,0.06
2013-2-13,43,42,42,43,42,42,99,99,99,29.81,29.73,2,0,3,0.01
2013-2-14,58,47,34,38,35,33,99,67,43,30.05,29.96,10,3,14,0.01
2013-2-15,58,43,32,44,36,32,99,79,48,30.07,29.97,16,3,17,0.08
2013-2-16,40,32,26,36,23,12,99,69,39,30.16,29.99,17,4,23,0.01
2013-2-17,48,31,16,19,15,11,89,55,24,30.28,30.15,13,2,15,0.00
2013-2-18,63,45,30,62,33,15,99,70,24,30.30,30.03,31,8,31,0.00
2013-2-19,55,45,36,51,36,19,99,75,25,30.21,29.95,24,9,30,0.33
2013-2-20,42,33,22,40,22,7,99,70,25,30.25,30.18,9,2,10,0.00
2013-2-21,54,39,26,40,24,16,99,59,25,30.23,29.97,9,4,11,0.47
2013-2-22,55,49,40,47,45,40,99,85,70,30.06,29.98,17,8,21,0.01
2013-2-23,58,48,44,54,47,44,99,96,75,30.01,29.82,7,2,11,0.15
2013-2-24,62,41,30,61,38,27,99,89,39,30.05,29.91,11,1,11,0.00
2013-2-25,59,44,34,44,32,26,99,64,39,30.03,29.75,13,3,13,0.00
2013-2-26,61,51,40,52,45,34,99,80,63,29.74,29.45,27,9,30,0.34
2013-2-27,54,43,39,39,35,33,95,73,48,29.87,29.72,18,7,18,0.00
2013-2-28,41,37,35,34,28,25,84,69,61,30.01,29.83,16,6,18,0.00
2013-3-1,40,37,33,34,31,27,99,81,71,30.00,29.94,10,4,11,0.00
2013-3-2,38,34,31,34,30,23,99,85,64,30.06,29.93,17,4,19,0.06
2013-3-3,34,29,26,26,23,19,92,79,62,30.09,30.04,10,4,12,0.00
2013-3-4,59,44,19,55,25,18,99,52,22,30.20,29.95,7,2,9,0.00
2013-3-5,55,46,36,55,42,28,99,88,48,30.01,29.62,23,7,35,0.73
2013-3-6,52,32,23,42,31,23,99,98,65,30.10,29.87,19,7,24,0.02
2013-3-7,44,37,32,44,35,32,99,95,68,30.02,29.91,13,6,14,0.01
2013-3-8,58,40,27,56,35,22,99,87,26,30.07,29.95,14,4,18,0.00
2013-3-9,66,47,30,60,34,29,99,68,31,29.99,29.79,10,3,11,0.00
2013-3-10,73,60,45,40,32,28,69,37,20,29.80,29.66,24,8,24,0.00
2013-3-11,64,57,45,57,50,40,99,78,44,29.68,29.41,29,11,31,0.87
2013-3-12,61,45,37,44,34,29,99,68,35,29.78,29.58,8,3,12,0.00
2013-3-13,48,39,32,34,26,19,94,63,37,30.03,29.77,16,5,20,0.00
2013-3-14,32,30,29,19,18,18,64,61,57,30.04,30.01,14,5,14,0.00
2013-3-18,65,58,51,56,52,48,99,81,62,29.59,29.42,21,9,21,0.57
2013-3-19,64,51,35,53,33,14,99,58,21,29.81,29.54,14,5,14,0.02
2013-3-20,58,45,32,33,21,12,81,42,20,29.83,29.57,12,4,12,0.00
2013-3-21,47,34,23,28,16,12,81,50,25,29.73,29.64,11,4,11,0.00
2013-3-22,46,36,25,30,22,16,81,58,37,29.79,29.70,6,2,6,0.00
2013-3-23,56,45,38,45,40,30,99,82,63,29.74,29.45,8,3,8,0.07
2013-3-24,63,48,42,56,44,32,99,85,67,29.52,29.10,27,10,28,0.71
2013-3-25,42,36,32,34,27,25,85,72,62,29.75,29.33,25,12,28,0.00
2013-3-26,42,35,31,31,28,25,94,79,56,29.91,29.74,14,5,16,0.00
2013-3-27,55,45,30,29,25,21,91,48,28,30.02,29.92,13,5,14,0.00
2013-3-28,62,47,25,34,28,24,99,52,27,30.03,29.82,10,4,13,0.00
2013-3-29,45,41,29,44,36,24,99,84,58,29.94,29.78,7,2,8,0.05
2013-3-30,65,52,42,53,47,42,99,84,50,29.80,29.55,7,3,8,0.15
2013-3-31,64,58,53,59,57,53,99,96,76,29.54,29.37,13,5,14,0.54
2013-4-1,67,59,39,67,58,39,99,96,67,29.57,29.42,18,5,18,0.01
2013-4-2,60,48,33,60,46,28,99,92,38,29.76,29.59,11,4,11,0.00
2013-4-3,59,52,39,59,47,27,99,87,37,29.78,29.70,17,7,18,0.00
2013-4-4,50,44,41,44,40,27,99,88,43,29.72,29.52,8,2,9,0.90
2013-4-5,41,41,41,41,41,40,99,99,99,29.55,29.51,2,1,2,0.00
2013-4-6,74,56,34,74,56,34,99,99,92,29.74,29.56,15,4,15,0.00
2013-4-7,74,65,56,74,64,46,99,97,66,29.73,29.56,16,8,16,0.00
2013-4-8,79,69,60,78,69,59,99,99,99,29.66,29.53,19,8,19,0.00
2013-4-9,84,72,58,82,71,58,99,97,73,29.71,29.50,17,6,17,0.00
2013-4-10,86,76,66,85,67,58,99,78,46,29.62,29.36,15,7,15,0.00
2013-4-11,84,76,62,84,73,58,99,92,59,29.51,29.22,32,8,34,0.46
2013-4-12,69,59,48,69,58,47,99,98,86,29.50,29.12,16,5,16,0.20
2013-4-13,80,60,40,80,60,40,99,99,99,29.63,29.50,10,2,13,0.00
2013-4-14,72,59,41,72,58,41,99,98,74,29.59,29.44,14,3,14,0.00
2013-4-24,74,62,46,73,61,46,99,96,57,29.76,29.55,14,7,14,0.24
2013-4-25,71,53,38,71,52,38,99,95,65,29.88,29.76,10,3,10,0.00
2013-4-26,74,56,35,74,48,35,99,82,27,29.93,29.79,7,2,7,0.00
2013-4-27,58,53,51,57,53,46,99,98,65,29.91,29.66,11,2,11,1.00
2013-4-28,60,57,52,60,57,52,99,99,99,29.68,29.49,13,4,13,1.02
2013-4-29,78,64,55,72,58,54,99,86,45,29.58,29.42,10,4,10,0.02
2013-4-30,82,67,49,82,65,49,99,96,65,29.61,29.49,9,2,9,0.00
2013-5-1,81,72,56,81,66,55,99,85,56,29.69,29.59,7,2,8,0.01
2013-5-2,66,64,61,61,54,52,99,71,66,29.69,29.66,5,3,7,0.00
2013-5-3,78,65,55,78,65,54,99,99,99,29.65,29.48,12,2,12,0.00
2013-5-4,64,57,53,64,56,52,99,98,72,29.49,29.39,7,2,10,0.99
2013-5-5,58,53,49,58,53,49,99,99,99,29.39,29.28,12,3,15,1.58
2013-5-6,64,53,43,60,51,43,99,92,65,29.42,29.30,15,3,15,0.15
2013-5-7,77,57,42,76,56,42,99,97,66,29.47,29.37,8,1,9,0.18
2013-5-8,78,64,56,72,61,55,99,92,56,29.57,29.43,12,4,14,0.00
2013-5-9,86,69,53,85,62,53,99,80,42,29.63,29.54,11,2,12,0.00
2013-5-10,76,68,62,64,60,56,90,74,58,29.61,29.47,14,3,19,0.00
2013-5-11,76,66,54,71,62,54,99,89,66,29.50,29.40,11,2,13,0.87
2013-5-12,70,58,44,55,42,30,99,62,26,29.66,29.50,11,3,20,0.01
2013-5-13,72,55,36,49,39,32,99,61,25,29.78,29.64,11,3,14,0.00
2013-5-14,81,63,42,58,49,39,94,64,40,29.76,29.55,16,4,16,0.00
2013-5-15,90,74,62,63,58,56,79,60,38,29.68,29.54,11,4,12,0.00
2013-5-16,90,73,59,65,61,56,91,68,39,29.62,29.51,14,2,14,0.00
2013-5-17,88,73,62,70,65,61,99,77,47,29.63,29.55,11,2,12,0.01
2013-5-18,82,70,64,73,68,63,99,94,73,29.61,29.52,8,2,13,0.46
2013-5-19,78,68,61,73,67,61,99,98,80,29.61,29.47,14,3,16,0.27
2013-5-20,88,72,57,84,67,56,99,86,58,29.62,29.52,8,2,10,0.00
2013-5-21,94,75,65,84,70,62,99,88,48,29.56,29.45,18,3,21,0.06
2013-5-22,88,76,66,82,71,63,99,87,44,29.49,29.36,16,5,21,0.01
2013-5-23,85,74,65,84,73,61,99,97,76,29.56,29.43,15,5,18,0.02
2013-5-24,77,64,51,76,63,44,99,96,45,29.78,29.56,14,5,15,0.00
2013-5-25,82,62,44,82,61,44,99,96,42,29.87,29.69,9,2,12,0.00
2013-5-26,85,65,50,81,62,48,99,94,28,29.82,29.71,7,2,8,0.00
2013-5-27,87,69,54,76,61,53,99,79,44,29.76,29.65,14,3,16,0.00
2013-5-28,89,79,70,88,78,70,99,99,99,29.70,29.62,11,6,11,0.00
2013-5-29,94,83,68,93,74,59,99,78,36,29.74,29.63,11,4,13,0.00
2013-5-30,92,78,63,69,65,62,99,66,40,29.75,29.64,12,4,14,0.00
2013-5-31,92,79,67,68,66,63,89,65,45,29.72,29.60,15,4,18,0.00
2013-6-1,90,79,71,74,69,64,99,73,52,29.64,29.50,16,5,16,0.25
2013-6-2,86,73,62,85,71,62,99,94,66,29.53,29.41,14,3,14,3.24
2013-6-3,86,73,64,86,73,64,99,99,99,29.54,29.43,9,2,9,0.00
2013-6-4,93,74,58,88,72,58,99,95,65,29.58,29.51,9,2,9,0.01
2013-6-5,89,72,65,89,72,64,99,99,99,29.58,29.47,17,2,18,0.81
2013-6-6,87,73,62,87,73,62,99,99,99,29.47,29.30,10,2,12,0.00
2013-6-7,88,73,67,88,73,66,99,99,99,29.41,29.25,11,2,15,0.94
2013-6-8,89,72,64,89,72,64,99,99,99,29.62,29.39,11,2,11,0.00
2013-6-9,90,74,66,90,74,66,99,99,99,29.62,29.50,13,2,14,0.21
2013-6-10,85,74,68,85,74,68,99,99,99,29.51,29.43,18,6,18,0.63
2013-6-11,91,77,67,91,77,67,99,99,99,29.58,29.49,9,2,10,0.05
2013-6-12,94,84,70,94,84,69,99,99,99,29.61,29.50,11,4,14,0.04
2013-6-13,90,80,72,90,80,72,99,99,99,29.51,29.29,23,6,25,0.00
2013-6-14,85,74,60,77,68,60,99,85,61,29.58,29.42,15,5,16,0.00
2013-6-15,91,74,59,82,66,59,99,80,46,29.65,29.57,12,3,13,0.00
2013-6-16,94,79,65,82,72,65,99,80,47,29.67,29.55,13,4,14,0.01
2013-6-17,91,76,70,90,74,70,99,96,64,29.60,29.47,17,3,17,0.44
2013-6-18,81,72,65,80,72,65,99,99,99,29.50,29.39,15,4,19,0.94
2013-6-19,88,73,62,82,67,62,99,85,45,29.62,29.47,8,2,11,0.00
2013-6-20,90,73,65,85,70,64,99,92,52,29.75,29.16,6,1,7,1.38
2013-6-21,91,74,66,88,72,66,99,93,56,29.79,29.69,6,1,7,0.01
2013-6-22,93,77,64,89,76,64,99,95,66,29.77,29.63,8,2,9,0.01
2013-6-23,92,76,64,91,75,64,99,98,74,29.74,29.65,11,1,11,0.11
2013-6-24,91,79,69,91,78,69,99,99,99,29.75,29.62,10,3,11,0.00
2013-6-25,92,78,70,91,77,70,99,96,64,29.71,29.55,11,3,11,0.00
2013-6-26,90,80,70,89,79,70,99,99,99,29.60,29.43,11,3,17,0.00
2013-6-27,90,80,70,90,79,70,99,99,99,29.50,29.34,15,6,17,0.12
2013-6-28,91,79,69,87,76,69,99,92,64,29.41,29.22,14,3,18,0.00
2013-6-29,91,77,68,86,71,64,99,84,45,29.28,29.21,11,3,14,0.01
2013-6-30,91,78,65,75,68,60,99,75,37,29.38,29.24,10,2,11,0.00
2013-7-1,86,73,64,78,71,63,99,94,68,29.47,29.33,20,2,22,0.20
2013-7-2,91,76,66,79,72,66,99,91,61,29.61,29.47,8,3,11,0.84
2013-7-3,77,71,68,77,70,67,99,99,95,29.69,29.60,9,1,11,0.45
2013-7-4,79,72,66,79,71,66,99,99,95,29.69,29.59,4,1,7,0.44
2013-7-5,82,74,69,78,73,69,99,96,85,29.70,29.61,11,3,14,0.01
2013-7-6,85,71,68,80,71,68,99,98,82,29.68,29.61,16,2,19,1.32
2013-7-7,74,70,68,74,70,68,99,99,99,29.69,29.59,6,1,8,1.51
2013-7-8,93,77,68,83,73,68,99,90,56,29.72,29.63,7,1,8,0.00
2013-7-9,94,80,70,82,77,70,99,92,62,29.70,29.59,9,2,10,0.00
2013-7-10,93,77,70,84,76,70,99,96,72,29.66,29.49,13,2,21,0.51
2013-7-11,92,79,69,80,75,69,99,88,63,29.54,29.42,10,3,10,0.04
2013-7-12,86,77,67,77,72,67,99,85,60,29.54,29.44,13,5,14,0.01
2013-7-13,91,76,65,78,72,64,99,87,59,29.63,29.49,11,2,12,0.00
2013-7-14,91,76,69,91,76,69,99,99,90,29.76,29.61,9,2,9,0.34
2013-7-15,97,80,67,90,76,67,99,91,51,29.84,29.74,8,2,11,0.00
2013-7-16,95,81,68,91,77,68,99,90,53,29.87,29.77,11,2,11,0.00
2013-7-17,95,82,70,95,82,70,99,99,99,29.84,29.70,12,3,15,0.00
2013-7-18,98,79,69,97,79,68,99,99,99,29.81,29.61,10,2,15,0.00
2013-7-19,96,82,70,96,82,70,99,99,99,29.68,29.52,12,3,12,0.00
2013-7-20,95,82,71,95,82,71,99,99,99,29.60,29.47,11,3,13,0.00
2013-7-21,89,77,71,88,77,70,99,99,99,29.58,29.49,11,3,12,0.04
2013-7-22,87,75,70,87,75,70,99,99,99,29.56,29.39,21,4,21,0.50
2013-7-23,87,76,70,87,76,70,99,99,99,29.49,29.37,15,3,20,0.05
2013-7-24,91,79,72,91,79,72,99,99,99,29.44,29.35,8,2,8,0.00
2013-7-25,91,76,63,91,76,63,99,99,71,29.60,29.43,8,3,10,0.00
2013-7-26,91,75,61,91,75,61,99,99,99,29.60,29.52,10,2,11,0.00
2013-7-27,88,74,68,88,74,67,99,99,99,29.56,29.43,9,2,11,0.01
2013-7-28,87,75,67,87,75,67,99,99,99,29.64,29.47,8,2,11,0.21
2013-7-29,88,71,60,88,70,60,99,99,99,29.76,29.61,10,2,11,0.00
2013-7-30,91,73,59,90,73,58,99,99,99,29.76,29.67,5,1,6,0.00
2013-7-31,79,70,68,79,70,67,99,99,99,29.70,29.51,8,2,9,0.13
2013-8-1,90,79,69,90,79,68,99,99,99,29.55,29.48,13,4,13,0.01
2013-8-2,94,76,64,94,76,64,99,99,99,29.60,29.51,9,2,10,0.00
2013-8-3,87,77,68,87,77,68,99,99,99,29.61,29.54,10,2,11,0.00
2013-8-4,89,81,70,88,81,70,99,99,99,29.61,29.55,11,4,12,0.00
2013-8-5,90,79,60,90,79,60,99,99,99,29.64,29.53,11,2,11,0.00
2013-8-6,90,80,68,89,80,67,99,99,99,29.56,29.51,6,0,9,0.02
2013-8-7,89,78,72,88,78,72,99,99,99,29.59,29.50,9,3,12,0.66
2013-8-8,91,74,70,91,74,70,99,99,99,29.60,29.52,18,3,27,0.77
2013-8-9,94,78,71,94,78,71,99,99,99,29.64,29.54,11,2,15,0.17
2013-8-10,91,78,73,91,78,72,99,99,99,29.65,29.59,14,2,14,0.27
2013-8-11,91,78,70,91,78,70,99,99,99,29.69,29.63,14,3,14,0.20
2013-8-12,88,77,69,88,77,69,99,99,99,29.67,29.52,14,2,17,0.39
2013-8-13,89,79,72,89,79,71,99,99,99,29.54,29.42,13,4,13,0.07
2013-8-14,82,75,66,82,74,66,99,99,99,29.57,29.47,13,6,13,0.00
2013-8-15,86,70,59,86,69,59,99,99,99,29.62,29.56,5,2,6,0.05
2013-8-16,81,69,61,81,69,61,99,99,99,29.63,29.57,8,2,8,0.01
2013-8-17,71,68,65,71,67,65,99,99,99,29.65,29.59,4,1,4,0.52
2013-8-18,80,72,66,80,72,66,99,99,99,29.70,29.61,11,2,11,0.19
2013-8-19,84,74,68,84,73,67,99,99,99,29.67,29.58,4,1,6,0.21
2013-8-20,89,77,65,89,77,65,99,99,99,29.70,29.61,5,1,7,0.01
2013-8-21,80,73,68,80,73,68,99,99,99,29.75,29.65,11,2,11,0.38
2013-8-22,97,81,68,96,80,67,99,99,99,29.68,29.58,7,2,7,0.01
2013-8-23,95,78,66,95,77,66,99,99,99,29.63,29.54,14,2,17,0.00
2013-8-24,69,68,68,69,68,68,99,99,99,29.68,29.59,3,1,4,0.00
2013-8-25,91,78,61,90,78,60,99,99,99,29.88,29.78,8,2,8,0.00
2013-8-26,77,65,61,77,65,61,99,99,99,29.83,29.81,2,0,3,0.00
2013-8-27,95,76,63,94,76,63,99,99,99,29.72,29.60,4,1,4,0.00
2013-8-28,95,79,67,95,79,66,99,99,99,29.63,29.54,9,1,9,0.00
2013-8-29,92,78,70,92,78,70,99,99,99,29.58,29.50,12,2,12,0.00
2013-8-30,92,79,68,92,79,68,99,99,99,29.55,29.47,11,2,11,0.00
2013-8-31,95,81,72,94,81,72,99,99,99,29.51,29.40,8,3,8,0.00
2013-9-1,88,77,71,88,76,71,99,99,99,29.47,29.41,14,4,16,0.01
2013-9-2,88,76,68,88,76,68,99,99,99,29.50,29.40,11,3,11,0.00
2013-9-3,90,78,69,89,78,69,99,99,99,29.57,29.39,7,3,8,0.00
2013-9-4,93,79,62,92,78,61,99,99,99,29.68,29.56,7,2,8,0.00
2013-9-5,90,73,63,89,73,62,99,99,99,29.71,29.63,9,2,10,0.00
2013-9-6,96,77,60,96,76,60,99,99,99,29.70,29.61,7,2,8,0.00
2013-9-7,80,72,64,80,71,63,99,99,99,29.66,29.56,4,1,8,0.00
2013-9-8,94,81,64,93,81,64,99,99,99,29.58,29.50,7,2,8,0.00
2013-9-9,96,80,65,96,79,65,99,99,99,29.68,29.57,11,2,11,0.00
2013-9-10,99,83,66,99,82,66,99,99,99,29.78,29.67,27,2,27,0.43
2013-9-11,94,79,68,94,79,68,99,99,99,29.77,29.65,7,1,7,0.00
2013-9-12,90,78,69,90,78,69,99,99,99,29.67,29.46,13,3,14,0.00
2013-9-13,72,69,66,72,68,66,99,99,99,29.50,29.45,0,0,0,0.00
2013-9-14,84,65,50,83,65,50,99,99,99,29.61,29.50,10,3,10,0.00
2013-9-15,88,69,53,88,68,52,99,99,99,29.69,29.61,11,1,11,0.00
2013-9-16,86,72,60,86,72,60,99,99,99,29.71,29.64,7,2,8,0.00
2013-9-17,82,72,63,82,71,62,99,99,99,29.73,29.68,13,3,13,0.00
2013-9-18,83,70,64,83,70,64,99,99,99,29.75,29.64,8,3,10,0.00
2013-9-19,89,72,60,89,71,60,99,99,99,29.69,29.59,8,1,9,0.00
2013-9-20,91,74,64,91,74,64,99,99,99,29.63,29.42,11,3,12,0.00
2013-9-21,75,69,63,75,69,62,99,99,99,29.44,29.28,14,4,17,1.22
2013-9-22,79,67,53,79,67,53,99,99,99,29.43,29.33,14,4,14,0.00
2013-9-23,90,66,52,90,66,52,99,99,99,29.53,29.43,7,2,8,0.00
2013-9-24,76,66,56,76,66,56,99,99,99,29.55,29.39,5,2,7,0.00
2013-9-25,72,66,64,71,66,64,99,99,99,29.37,29.27,5,1,6,0.01
2013-9-26,83,70,60,83,70,60,99,99,99,29.52,29.35,9,1,9,0.01
2013-9-27,86,72,54,85,72,53,99,99,99,29.64,29.53,8,2,8,0.00
2013-9-28,86,74,62,86,73,62,99,99,99,29.71,29.61,8,3,10,0.00
2013-9-29,72,64,58,72,64,58,99,99,99,29.64,29.51,8,2,11,0.00
2013-9-30,75,61,54,74,61,53,99,99,99,29.59,29.53,4,0,5,0.00
2013-10-1,88,69,58,88,69,58,99,99,99,29.65,29.55,8,1,8,0.00
2013-10-2,89,72,60,89,71,60,99,99,99,29.66,29.59,4,1,4,0.00
2013-10-3,87,76,65,87,76,65,99,99,99,29.63,29.59,9,3,11,0.00
2013-10-27,85,69,57,85,69,57,99,99,99,29.70,29.60,7,2,7,0.00
2013-10-28,78,67,59,78,66,58,99,99,99,29.64,29.54,6,3,6,0.00
2013-10-29,84,66,54,84,66,54,99,99,99,29.58,29.50,9,2,9,0.00
2013-10-30,88,69,58,88,68,58,99,99,99,29.65,29.53,8,1,8,0.00
2013-10-31,89,71,60,89,71,60,99,99,99,29.66,29.59,4,1,4,0.00
2013-11-1,87,71,52,87,71,52,99,99,99,29.64,29.59,9,1,9,0.01
2013-11-2,62,52,43,62,52,43,99,99,99,29.40,29.29,5,2,5,0.00
2013-11-3,62,47,35,62,46,35,99,99,99,29.78,29.57,9,2,9,0.00
2013-11-4,72,53,33,72,53,32,99,99,99,29.91,29.83,8,4,8,0.00
2013-11-5,77,55,42,77,55,42,99,99,99,29.94,29.80,5,1,7,0.00
2013-11-6,79,67,50,78,67,50,99,99,99,29.77,29.55,19,8,21,0.00
2013-11-7,65,53,43,65,53,43,99,99,87,29.75,29.51,11,4,17,0.00
2013-11-8,59,41,30,58,41,29,99,99,99,29.89,29.78,14,2,14,0.00
2013-11-9,56,44,28,56,44,28,99,99,99,29.85,29.73,11,3,11,0.00
2013-11-10,74,56,37,65,39,23,99,62,20,29.83,29.72,8,2,8,0.00
2013-11-11,68,51,30,68,38,24,99,66,30,29.84,29.67,8,2,8,0.00
2013-11-12,52,43,30,51,40,17,99,90,46,30.03,29.66,14,6,16,0.00
2013-11-13,47,32,24,47,30,16,99,91,60,30.17,30.01,14,5,15,0.00
2013-11-14,65,46,19,64,45,19,99,97,68,30.03,29.83,9,2,11,0.00
2013-11-15,50,44,36,49,42,28,99,95,48,29.84,29.69,11,2,11,0.00
2013-11-16,70,57,43,61,55,43,99,92,69,29.75,29.60,17,4,17,0.87
2013-11-17,70,66,63,69,63,59,99,91,74,29.61,29.32,18,10,21,0.66
2013-11-18,69,58,47,69,44,31,99,63,30,29.63,29.33,15,4,19,0.20
2013-11-19,56,46,38,34,28,22,80,50,27,29.72,29.62,17,6,17,0.00
2013-11-20,67,51,32,38,28,15,99,49,15,29.83,29.68,10,3,11,0.00
2013-11-21,66,53,40,54,43,32,99,70,44,29.87,29.77,11,3,11,0.00
2013-11-22,60,56,52,60,56,52,99,99,98,29.81,29.68,10,4,10,0.13
2013-11-23,53,45,36,52,37,18,99,76,47,29.87,29.68,14,5,14,0.05
2013-11-24,40,30,23,16,7,-2,65,39,16,30.08,29.93,18,6,21,0.05
2013-11-25,39,32,25,20,11,6,60,44,28,30.00,29.81,6,2,6,0.00
2013-11-26,42,38,32,42,38,32,99,99,99,29.73,29.29,11,2,11,1.69
2013-11-27,36,31,26,36,26,15,99,81,55,29.83,29.35,15,4,18,0.08
2013-11-28,47,30,17,25,18,8,99,67,20,30.01,29.87,7,1,9,0.08
2013-11-29,54,37,21,36,21,10,99,62,17,30.11,30.00,8,2,8,0.08
2013-11-30,58,37,24,41,27,21,99,73,24,30.08,29.84,8,2,11,0.08
2013-12-1,56,44,26,37,31,24,99,63,34,29.84,29.55,7,2,8,0.08
2013-12-2,53,47,44,50,44,35,99,89,64,29.55,29.34,7,2,8,0.00
2013-12-3,62,54,46,59,53,45,99,96,86,29.39,29.34,12,2,14,0.01
2013-12-4,73,66,53,65,62,52,99,89,70,29.47,29.37,15,6,16,0.00
2013-12-5,74,69,65,72,68,64,99,98,90,29.50,29.36,14,6,14,0.02
2013-12-6,70,52,39,70,52,39,99,99,99,29.65,29.32,14,4,14,1.25
2013-12-7,40,37,36,40,37,35,99,99,99,29.87,29.65,17,6,17,0.02
2013-12-8,45,40,35,44,40,35,99,99,99,29.81,29.57,11,2,11,0.70
2013-12-9,53,46,40,53,46,40,99,99,99,29.65,29.50,9,4,11,0.44
2013-12-10,45,36,25,40,34,25,99,93,68,29.87,29.48,11,3,11,0.56
2013-12-11,52,37,20,42,32,20,99,84,52,29.98,29.85,10,2,10,0.01
2013-12-12,39,30,24,29,23,14,99,78,44,30.06,29.92,9,2,9,0.01
2013-12-13,54,35,19,30,19,-1,99,61,10,29.97,29.66,4,1,5,0.04
2013-12-14,52,45,36,52,44,28,99,95,64,29.71,29.33,15,4,20,0.51
2013-12-15,44,35,28,44,35,28,99,99,98,29.75,29.40,10,4,14,0.00
2013-12-16,53,39,24,41,34,24,99,86,62,29.79,29.66,14,4,14,0.00
2013-12-17,60,50,36,38,34,23,93,56,42,29.78,29.56,17,8,21,0.00
2013-12-18,53,36,24,35,23,10,99,69,18,29.90,29.78,6,1,8,0.00
2013-12-19,63,43,24,35,19,5,99,48,10,29.86,29.68,12,3,13,0.00
2013-12-20,68,57,46,54,28,13,74,35,20,29.73,29.59,14,6,14,0.00
2013-12-21,71,66,62,70,64,54,99,91,74,29.57,29.28,20,10,21,0.05
2013-12-22,71,62,56,70,61,56,99,98,87,29.43,29.26,21,10,28,1.44
2013-12-23,55,47,39,55,46,39,99,99,96,29.73,29.49,11,5,11,0.25
2013-12-24,39,32,25,29,21,9,86,66,30,29.98,29.83,11,4,11,0.25
2013-12-25,48,31,17,25,18,12,99,65,24,29.99,29.85,9,2,11,0.00
2013-12-26,53,38,25,33,20,9,94,57,17,29.93,29.83,6,2,8,0.01
2013-12-27,60,38,22,37,21,2,99,61,10,30.01,29.90,6,1,7,0.01
2013-12-28,40,34,25,39,34,25,99,99,93,29.95,29.47,7,1,7,0.67
2013-12-29,48,42,38,48,42,37,99,99,99,29.58,29.41,8,3,11,0.43
2013-12-30,43,38,36,43,38,34,99,98,89,29.75,29.56,6,2,6,0.00
2013-12-31,44,32,26,36,28,21,99,87,40,29.92,29.73,4,1,6,0.00
2014-1-1,49,35,22,35,29,22,99,80,43,29.89,29.63,8,2,9,0.00
2014-1-2,46,34,21,46,30,10,99,86,61,29.76,29.32,21,6,21,0.51